Weather History for KWWD - August, 2013

Change the Weather History Date:

Tuesday, August 13, 2013

  Actual Average Record
Temperature  
Mean Temperature 76 °F -  
Max Temperature 82 °F 80 °F 91 °F (2002)
Min Temperature 71 °F 66 °F 55 °F (2006)
Cooling Degree Days 12    
Growing Degree Days 26 (Base 50)    
Moisture  
Dew Point 70 °F    
Average Humidity 83    
Maximum Humidity 94    
Minimum Humidity 65    
Precipitation  
Precipitation 0.00 in - - ()
Sea Level Pressure  
Sea Level Pressure 29.80 in    
Wind  
Wind Speed 7 mph (SW)    
Max Wind Speed 18 mph    
Max Gust Speed 23 mph    
Visibility 8 miles    
Events      
Averages and records for this station are not official NWS values.
T = Trace of Precipitation, MM = Missing Value Source: NWS Daily Summary

Daily Weather History Graph

Daily Weather History Graph

Search for Another Location

Airport or City:

Trip Planner

Search our weather history database for the weather conditions in past years. The results will help you decide how hot, cold, wet, or windy it might be!

Date:

Astronomy

Aug. 13, 2013 Rise Set
Actual Time 6:11 AM EDT 7:56 PM EDT
Civil Twilight 5:42 AM EDT 8:25 PM EDT
Nautical Twilight 5:07 AM EDT 9:00 PM EDT
Astronomical Twilight 4:30 AM EDT 9:36 PM EDT
Moon 12:59 PM EDT (8/13) 11:34 PM EDT (8/13)
Length of Visible Light 14h 42m
Length of Day
13h 45m
Waxing Crescent, 41% of the Moon is Illuminated
Aug 13
Waxing Crescent
Aug 14
First Quarter
Aug 20
Full
Aug 28
Last Quarter
Sep 5
New

Hourly Weather History & Observations

Time (EDT) Temp. Heat Index Dew Point Humidity Pressure Visibility Wind Dir Wind Speed Gust Speed Precip Events Conditions
1:15 AM 73.4 °F - 71.6 °F 94% 29.91 in 7.0 mi South 3.5 mph - N/A   Clear
1:35 AM 73.4 °F - 71.6 °F 94% 29.91 in 7.0 mi South 4.6 mph - N/A   Clear
1:55 AM 75.2 °F - 71.6 °F 89% 29.91 in 7.0 mi South 4.6 mph - N/A   Clear
2:15 AM 75.2 °F - 71.6 °F 89% 29.91 in 5.0 mi South 3.5 mph - N/A   Clear
2:35 AM 73.4 °F - 71.6 °F 94% 29.90 in 5.0 mi Calm Calm - N/A   Clear
2:55 AM 73.4 °F - 71.6 °F 94% 29.89 in 5.0 mi SSE 3.5 mph - N/A   Clear
3:15 AM 73.4 °F - 71.6 °F 94% 29.88 in 5.0 mi Calm Calm - N/A   Clear
3:35 AM 73.4 °F - 71.6 °F 94% 29.88 in 5.0 mi SE 3.5 mph - N/A   Clear
3:55 AM 73.4 °F - 71.6 °F 94% 29.88 in 5.0 mi SE 3.5 mph - N/A   Clear
4:15 AM 73.4 °F - 71.6 °F 94% 29.87 in 4.0 mi South 3.5 mph - N/A   Clear
4:35 AM 73.4 °F - 71.6 °F 94% 29.87 in 3.0 mi South 4.6 mph - N/A   Clear
4:55 AM 73.4 °F - 71.6 °F 94% 29.87 in 4.0 mi SSE 3.5 mph - N/A   Clear
5:15 AM 73.4 °F - 71.6 °F 94% 29.85 in 4.0 mi SSE 5.8 mph - N/A   Clear
5:35 AM 73.4 °F - 71.6 °F 94% 29.84 in 5.0 mi SSE 8.1 mph - N/A   Clear
5:55 AM 73.4 °F - 71.6 °F 94% 29.83 in 5.0 mi SSE 5.8 mph - N/A   Clear
6:15 AM 73.4 °F - 71.6 °F 94% 29.83 in 3.0 mi SSE 8.1 mph - N/A   Partly Cloudy
6:35 AM 73.4 °F - 71.6 °F 94% 29.82 in 3.0 mi SSE 9.2 mph - N/A   Mostly Cloudy
6:55 AM 75.2 °F - 71.6 °F 89% 29.82 in 5.0 mi SSE 9.2 mph - N/A   Scattered Clouds
7:15 AM 75.2 °F - 71.6 °F 89% 29.82 in 4.0 mi South 10.4 mph - N/A   Scattered Clouds
7:35 AM 75.2 °F - 73.4 °F 94% 29.82 in 5.0 mi South 11.5 mph - N/A   Mostly Cloudy
7:55 AM 75.2 °F - 73.4 °F 94% 29.83 in 2.0 mi South 13.8 mph - N/A   Overcast
8:15 AM 75.2 °F - 73.4 °F 94% 29.81 in 4.0 mi South 12.7 mph - N/A   Overcast
8:35 AM 75.2 °F - 73.4 °F 94% 29.80 in 4.0 mi South 15.0 mph - N/A   Overcast
8:55 AM 75.2 °F - 73.4 °F 94% 29.79 in 5.0 mi South 13.8 mph - N/A   Overcast
9:15 AM 77.0 °F - 73.4 °F 89% 29.78 in 8.0 mi South 18.4 mph 23.0 mph N/A   Overcast
9:35 AM 77.0 °F - 73.4 °F 89% 29.78 in 9.0 mi South 12.7 mph 20.7 mph N/A   Overcast
9:55 AM 77.0 °F - 73.4 °F 89% 29.78 in 10.0 mi South 13.8 mph - N/A   Overcast
10:15 AM 78.8 °F - 73.4 °F 83% 29.77 in 10.0 mi South 13.8 mph 18.4 mph N/A   Mostly Cloudy
10:35 AM 80.6 °F 85.4 °F 73.4 °F 79% 29.77 in 10.0 mi SSW 12.7 mph - N/A   Scattered Clouds
10:55 AM 80.6 °F 85.4 °F 73.4 °F 79% 29.76 in 9.0 mi SW 13.8 mph 18.4 mph N/A   Scattered Clouds
11:15 AM 82.4 °F 89.5 °F 75.2 °F 79% 29.76 in 10.0 mi SW 16.1 mph 20.7 mph N/A   Overcast
11:35 AM 82.4 °F 89.5 °F 75.2 °F 79% 29.76 in 9.0 mi WSW 15.0 mph 18.4 mph N/A   Mostly Cloudy
11:55 AM 82.4 °F 88.2 °F 73.4 °F 74% 29.76 in 10.0 mi WSW 13.8 mph 18.4 mph N/A   Mostly Cloudy
12:15 PM 78.8 °F - 69.8 °F 74% 29.78 in 10.0 mi WNW 10.4 mph 18.4 mph N/A   Overcast
12:35 PM 77.0 °F - 69.8 °F 78% 29.77 in 10.0 mi WNW 10.4 mph 19.6 mph N/A   Overcast
12:55 PM 75.2 °F - 69.8 °F 83% 29.77 in 9.0 mi WNW 9.2 mph - N/A   Overcast
1:15 PM 75.2 °F - 69.8 °F 83% 29.77 in 10.0 mi WNW 11.5 mph - N/A   Overcast
1:35 PM 77.0 °F - 71.6 °F 83% 29.77 in 10.0 mi WNW 6.9 mph - N/A   Scattered Clouds
1:55 PM 77.0 °F - 69.8 °F 78% 29.76 in 10.0 mi WNW 11.5 mph - N/A   Partly Cloudy
2:15 PM 77.0 °F - 69.8 °F 78% 29.77 in 10.0 mi WNW 10.4 mph 17.3 mph N/A   Partly Cloudy
2:35 PM 78.8 °F - 69.8 °F 74% 29.77 in 10.0 mi WNW 11.5 mph - N/A   Clear
2:55 PM 78.8 °F - 69.8 °F 74% 29.76 in 10.0 mi West 13.8 mph - N/A   Clear
3:15 PM 78.8 °F - 69.8 °F 74% 29.76 in 10.0 mi WNW 12.7 mph 16.1 mph N/A   Clear
3:35 PM 78.8 °F - 69.8 °F 74% 29.76 in 10.0 mi WNW 12.7 mph 18.4 mph N/A   Clear
3:55 PM 78.8 °F - 69.8 °F 74% 29.76 in 10.0 mi WNW 9.2 mph 19.6 mph N/A   Clear
4:15 PM 78.8 °F - 68.0 °F 69% 29.76 in 10.0 mi West 10.4 mph 18.4 mph N/A   Clear
4:35 PM 78.8 °F - 68.0 °F 69% 29.76 in 10.0 mi WNW 12.7 mph - N/A   Clear
4:55 PM 78.8 °F - 68.0 °F 69% 29.76 in 10.0 mi WNW 10.4 mph - N/A   Clear
5:15 PM 78.8 °F - 68.0 °F 69% 29.76 in 10.0 mi WNW 10.4 mph - N/A   Clear
5:35 PM 78.8 °F - 66.2 °F 65% 29.76 in 10.0 mi West 6.9 mph - N/A   Clear
5:55 PM 78.8 °F - 66.2 °F 65% 29.77 in 10.0 mi West 10.4 mph - N/A   Clear
6:15 PM 78.8 °F - 66.2 °F 65% 29.77 in 10.0 mi West 5.8 mph - N/A   Clear
6:35 PM 78.8 °F - 66.2 °F 65% 29.77 in 10.0 mi West 5.8 mph - N/A   Clear
6:55 PM 77.0 °F - 68.0 °F 74% 29.77 in 10.0 mi West 3.5 mph - N/A   Clear
7:15 PM 77.0 °F - 68.0 °F 74% 29.77 in 10.0 mi SW 3.5 mph - N/A   Clear
7:35 PM 77.0 °F - 68.0 °F 74% 29.77 in 10.0 mi South 3.5 mph - N/A   Clear
7:55 PM 75.2 °F - 68.0 °F 78% 29.77 in 10.0 mi Calm Calm - N/A   Clear
8:15 PM 73.4 °F - 68.0 °F 83% 29.77 in 10.0 mi SSE 3.5 mph - N/A   Clear
8:35 PM 73.4 °F - 68.0 °F 83% 29.78 in 10.0 mi Calm Calm - N/A   Clear
8:55 PM 73.4 °F - 66.2 °F 78% 29.78 in 10.0 mi Calm Calm - N/A   Clear
9:15 PM 73.4 °F - 68.0 °F 83% 29.78 in 10.0 mi Calm Calm - N/A   Clear
9:35 PM 71.6 °F - 66.2 °F 83% 29.78 in 10.0 mi Calm Calm - N/A   Clear
9:55 PM 73.4 °F - 66.2 °F 78% 29.77 in 10.0 mi Calm Calm - N/A   Clear
10:15 PM 73.4 °F - 66.2 °F 78% 29.78 in 10.0 mi Calm Calm - N/A   Clear
10:35 PM 73.4 °F - 66.2 °F 78% 29.77 in 10.0 mi Calm Calm - N/A   Clear
10:55 PM 73.4 °F - 68.0 °F 83% 29.77 in 10.0 mi West 4.6 mph - N/A   Clear
11:15 PM 73.4 °F - 69.8 °F 88% 29.77 in 10.0 mi West 5.8 mph - N/A   Clear
11:35 PM 75.2 °F - 69.8 °F 83% 29.77 in 10.0 mi West 6.9 mph - N/A   Scattered Clouds
11:55 PM 75.2 °F - 69.8 °F 83% 29.78 in 10.0 mi West 12.7 mph 19.6 mph N/A   Mostly Cloudy